5YSMS BGSF-BGGH

Flight info

Callsign 5YSMS
Flight time N/A
Altitude 10000
Route GILPO1A GILPO DCT BAKUG DCT GETDA
Aircraft F50/M-SDFGR/C

Departure

Time 2026-04-29 14:42
Airport Kangerlussuaq International Airport (BGSF)

Arrival

Time N/A
Airport Nuuk International Airport (BGGH)
Time Latitude Longitude Altitude Speed Heading
2026-04-29 14:02 67.01836 -50.69484 275 ft 0 kts 147°
2026-04-29 14:18 67.01822 -50.69521 274 ft 3 kts 316°
2026-04-29 14:18 67.01842 -50.69550 278 ft 3 kts 12°
2026-04-29 14:18 67.01847 -50.69516 278 ft 0 kts 108°
2026-04-29 14:20 67.01847 -50.69515 278 ft 0 kts 108°
2026-04-29 14:31 67.01845 -50.69500 277 ft 5 kts 109°
2026-04-29 14:32 67.01820 -50.69367 268 ft 7 kts 126°
2026-04-29 14:32 67.01777 -50.69287 257 ft 0 kts 153°
2026-04-29 14:33 67.01678 -50.69154 234 ft 29 kts 147°
2026-04-29 14:33 67.01501 -50.69075 204 ft 24 kts 211°
2026-04-29 14:33 67.01351 -50.69344 182 ft 29 kts 219°
2026-04-29 14:33 67.01263 -50.69741 172 ft 12 kts 243°
2026-04-29 14:34 67.01198 -50.69874 163 ft 13 kts 180°
2026-04-29 14:34 67.01166 -50.69797 155 ft 0 kts 343°
2026-04-29 14:38 67.01198 -50.69820 161 ft 9 kts 337°
2026-04-29 14:39 67.01211 -50.69930 166 ft 10 kts 248°
2026-04-29 14:39 67.01154 -50.70204 163 ft 18 kts 246°
2026-04-29 14:39 67.01206 -50.70354 179 ft 15 kts 346°
2026-04-29 14:39 67.01353 -50.70553 213 ft 18 kts 262°
2026-04-29 14:40 67.01266 -50.70997 200 ft 46 kts 242°
2026-04-29 14:40 67.01077 -50.71856 188 ft 49 kts 240°
2026-04-29 14:40 67.00936 -50.72514 195 ft 36 kts 244°
2026-04-29 14:40 67.00764 -50.73357 206 ft 49 kts 240°
2026-04-29 14:41 67.00629 -50.74029 210 ft 35 kts 251°
2026-04-29 14:41 67.00581 -50.74220 213 ft 2 kts 60°
2026-04-29 14:41 67.00691 -50.73692 208 ft 76 kts 62°
2026-04-29 14:41 67.01046 -50.72016 190 ft 133 kts 63°
2026-04-29 14:42 67.01459 -50.69840 604 ft 132 kts 68°
2026-04-29 14:42 67.01796 -50.67778 1127 ft 130 kts 68°
2026-04-29 14:42 67.02026 -50.65715 1977 ft 106 kts 83°
2026-04-29 14:42 67.02090 -50.64285 2774 ft 73 kts 82°
2026-04-29 14:43 67.02045 -50.62835 3026 ft 97 kts 113°
2026-04-29 14:43 67.01494 -50.61634 3361 ft 116 kts 167°
2026-04-29 14:43 67.00748 -50.61906 3992 ft 107 kts 193°
2026-04-29 14:43 67.00011 -50.62178 4438 ft 111 kts 179°
2026-04-29 14:44 66.99273 -50.62351 4951 ft 107 kts 189°
2026-04-29 14:44 66.98528 -50.62767 5383 ft 111 kts 189°
2026-04-29 14:44 66.97779 -50.63125 5773 ft 119 kts 189°
2026-04-29 14:44 66.96916 -50.63601 6119 ft 133 kts 192°
2026-04-29 14:45 66.96014 -50.64140 6601 ft 137 kts 192°
2026-04-29 14:45 66.95093 -50.64684 7174 ft 134 kts 193°
2026-04-29 14:45 66.94194 -50.65230 7688 ft 135 kts 193°
2026-04-29 14:45 66.93287 -50.65783 8189 ft 136 kts 193°
2026-04-29 14:46 66.92381 -50.66337 8693 ft 136 kts 194°
2026-04-29 14:46 66.91458 -50.66902 9198 ft 136 kts 194°
2026-04-29 14:46 66.90548 -50.67461 9651 ft 135 kts 194°
2026-04-29 14:46 66.89653 -50.68010 10100 ft 135 kts 194°
2026-04-29 14:47 66.88680 -50.68611 10270 ft 157 kts 195°
2026-04-29 14:47 66.87503 -50.69338 10233 ft 191 kts 194°
2026-04-29 14:47 66.86115 -50.70187 10184 ft 217 kts 194°
2026-04-29 14:47 66.84575 -50.71130 10133 ft 236 kts 194°
2026-04-29 14:48 66.82941 -50.72129 10158 ft 247 kts 194°
2026-04-29 14:48 66.81252 -50.73161 10161 ft 257 kts 194°
2026-04-29 14:48 66.79495 -50.74240 10105 ft 265 kts 194°
2026-04-29 14:48 66.77699 -50.75370 10099 ft 269 kts 194°
2026-04-29 14:49 66.75880 -50.76505 10110 ft 272 kts 194°
2026-04-29 14:49 66.74017 -50.77636 10071 ft 274 kts 194°
2026-04-29 14:49 66.72185 -50.78763 10095 ft 275 kts 194°
2026-04-29 14:49 66.70312 -50.79919 10088 ft 277 kts 194°
2026-04-29 14:50 66.68501 -50.81495 10074 ft 277 kts 207°
2026-04-29 14:50 66.66847 -50.83915 10102 ft 276 kts 212°
2026-04-29 14:50 66.65121 -50.85986 10079 ft 278 kts 200°
2026-04-29 14:50 66.63294 -50.87548 10081 ft 279 kts 202°
2026-04-29 14:51 66.61552 -50.89629 10051 ft 279 kts 209°
2026-04-29 14:51 66.59810 -50.91811 10044 ft 279 kts 205°
2026-04-29 14:51 66.58026 -50.93547 10071 ft 275 kts 201°
2026-04-29 14:51 66.56293 -50.95387 10051 ft 267 kts 206°
2026-04-29 14:52 66.54636 -50.97358 10058 ft 261 kts 205°
2026-04-29 14:52 66.52980 -50.99143 10070 ft 256 kts 204°
2026-04-29 14:52 66.51369 -51.00899 10068 ft 251 kts 205°
2026-04-29 14:52 66.49793 -51.02651 10125 ft 249 kts 205°
2026-04-29 14:53 66.48219 -51.04390 10054 ft 248 kts 205°
2026-04-29 14:53 66.45452 -51.06361 10035 ft 245 kts 182°
2026-04-29 14:53 66.42120 -51.06743 10043 ft 244 kts 186°
2026-04-29 14:53 66.38718 -51.07450 9996 ft 244 kts 186°
2026-04-29 14:54 66.35170 -51.08216 9980 ft 243 kts 186°
2026-04-29 14:54 66.31457 -51.09023 9972 ft 242 kts 186°
2026-04-29 14:54 66.29791 -51.09386 9965 ft 241 kts 186°
2026-04-29 14:54 66.28112 -51.09752 9959 ft 242 kts 186°
2026-04-29 14:55 66.26435 -51.10117 9942 ft 242 kts 186°
2026-04-29 14:55 66.24764 -51.10481 9921 ft 242 kts 186°
2026-04-29 14:55 66.23104 -51.10841 9919 ft 242 kts 186°
2026-04-29 14:55 66.21430 -51.11204 9903 ft 242 kts 186°
2026-04-29 14:56 66.19366 -51.11651 9889 ft 242 kts 186°
2026-04-29 14:56 66.15191 -51.12554 9868 ft 242 kts 186°
2026-04-29 14:56 66.09841 -51.13707 9841 ft 241 kts 186°
2026-04-29 14:56 66.04053 -51.14888 9810 ft 240 kts 185°
2026-04-29 14:57 65.98810 -51.15893 9801 ft 240 kts 185°
2026-04-29 14:57 65.94943 -51.16632 9837 ft 241 kts 185°
2026-04-29 14:57 65.93280 -51.16949 9850 ft 242 kts 185°
2026-04-29 14:57 65.91597 -51.17269 9871 ft 242 kts 185°
2026-04-29 14:58 65.89905 -51.17592 9891 ft 246 kts 185°
2026-04-29 14:58 65.88195 -51.17917 9898 ft 253 kts 185°
2026-04-29 14:58 65.86430 -51.18253 9899 ft 257 kts 185°
2026-04-29 14:58 65.84651 -51.18590 9937 ft 259 kts 185°
2026-04-29 14:59 65.82842 -51.18933 9971 ft 261 kts 185°
2026-04-29 14:59 65.81029 -51.19277 9991 ft 263 kts 185°
2026-04-29 14:59 65.79211 -51.19630 9985 ft 265 kts 185°
2026-04-29 14:59 65.77380 -51.19994 10007 ft 266 kts 185°
2026-04-29 15:00 65.75521 -51.20353 10024 ft 266 kts 185°
2026-04-29 15:00 65.73689 -51.20697 10039 ft 266 kts 185°
2026-04-29 15:00 65.71860 -51.21043 10054 ft 267 kts 186°
2026-04-29 15:00 65.69989 -51.21403 10017 ft 269 kts 186°
2026-04-29 15:01 65.68154 -51.21756 10010 ft 269 kts 186°
2026-04-29 15:01 65.66277 -51.22114 10010 ft 268 kts 185°
2026-04-29 15:01 65.64435 -51.22456 10025 ft 268 kts 185°
2026-04-29 15:01 65.62574 -51.22797 10025 ft 269 kts 185°
2026-04-29 15:02 65.60721 -51.23141 10007 ft 270 kts 185°
2026-04-29 15:02 65.58849 -51.23497 10009 ft 270 kts 186°
2026-04-29 15:02 65.56978 -51.23853 9992 ft 270 kts 186°
2026-04-29 15:02 65.55121 -51.24200 9983 ft 269 kts 186°
2026-04-29 15:03 65.53275 -51.24544 9991 ft 269 kts 186°
2026-04-29 15:03 65.51413 -51.24887 9981 ft 268 kts 186°
2026-04-29 15:03 65.49561 -51.25225 9989 ft 268 kts 186°
2026-04-29 15:03 65.47694 -51.25564 9997 ft 268 kts 186°
2026-04-29 15:04 65.45858 -51.25900 10000 ft 268 kts 186°
2026-04-29 15:04 65.43993 -51.26245 9994 ft 268 kts 186°
2026-04-29 15:04 65.42151 -51.26590 9994 ft 269 kts 186°
2026-04-29 15:04 65.40276 -51.26970 10009 ft 271 kts 186°
2026-04-29 15:05 65.36240 -51.27758 10026 ft 275 kts 186°
2026-04-29 15:05 65.33428 -51.28294 10029 ft 276 kts 186°
2026-04-29 15:05 65.31493 -51.28668 10027 ft 277 kts 186°
2026-04-29 15:05 65.29588 -51.29022 10023 ft 277 kts 186°
2026-04-29 15:06 65.27663 -51.29373 10046 ft 277 kts 186°
2026-04-29 15:06 65.25751 -51.29723 10034 ft 277 kts 186°
2026-04-29 15:06 65.23856 -51.30072 10049 ft 277 kts 186°
2026-04-29 15:06 65.21919 -51.30424 10047 ft 277 kts 186°
2026-04-29 15:07 65.20003 -51.30766 10028 ft 278 kts 186°
2026-04-29 15:07 65.18099 -51.31105 10056 ft 277 kts 186°
2026-04-29 15:07 65.16176 -51.31447 10068 ft 279 kts 186°
2026-04-29 15:07 65.14242 -51.31792 10036 ft 280 kts 186°
2026-04-29 15:08 65.12311 -51.32148 10034 ft 280 kts 186°
2026-04-29 15:08 65.10364 -51.32508 10051 ft 279 kts 186°
2026-04-29 15:08 65.08438 -51.32851 10048 ft 279 kts 186°
2026-04-29 15:08 65.06498 -51.33193 10056 ft 279 kts 186°
2026-04-29 15:09 65.04572 -51.33535 10051 ft 279 kts 186°
2026-04-29 15:09 65.02650 -51.33876 10064 ft 279 kts 186°
2026-04-29 15:09 65.00728 -51.34213 10065 ft 279 kts 186°
2026-04-29 15:09 64.98794 -51.34551 10086 ft 279 kts 186°
2026-04-29 15:10 64.96874 -51.34892 10070 ft 280 kts 186°
2026-04-29 15:10 64.94938 -51.35242 10067 ft 280 kts 186°
2026-04-29 15:10 64.93008 -51.35587 10061 ft 279 kts 186°
2026-04-29 15:10 64.91085 -51.35923 10063 ft 279 kts 186°
2026-04-29 15:11 64.89155 -51.36261 10060 ft 278 kts 186°
2026-04-29 15:11 64.87238 -51.36600 10075 ft 277 kts 186°
2026-04-29 15:11 64.85310 -51.36939 10085 ft 277 kts 186°
2026-04-29 15:11 64.83388 -51.37275 10071 ft 278 kts 186°
2026-04-29 15:12 64.81483 -51.37608 10067 ft 277 kts 186°
2026-04-29 15:12 64.80194 -51.37832 10080 ft 277 kts 185°
2026-04-29 15:12 64.77649 -51.38268 10073 ft 278 kts 185°
2026-04-29 15:12 64.75710 -51.38601 10064 ft 278 kts 186°
2026-04-29 15:13 64.73792 -51.38936 10074 ft 278 kts 186°
2026-04-29 15:13 64.71395 -51.39354 10054 ft 278 kts 186°
2026-04-29 15:13 64.65421 -51.40374 10044 ft 278 kts 185°
2026-04-29 15:13 64.60523 -51.41097 10022 ft 277 kts 187°
2026-04-29 15:14 64.56266 -51.41819 10006 ft 277 kts 185°
2026-04-29 15:14 64.53979 -51.42203 9996 ft 277 kts 186°
2026-04-29 15:14 64.52063 -51.42356 10001 ft 277 kts 181°
2026-04-29 15:14 64.50146 -51.42157 9993 ft 278 kts 177°
2026-04-29 15:15 64.48242 -51.41708 10001 ft 278 kts 174°
2026-04-29 15:15 64.46323 -51.41140 9994 ft 277 kts 179°
2026-04-29 15:15 64.44467 -51.42005 10012 ft 275 kts 209°
2026-04-29 15:15 64.43010 -51.44827 10048 ft 272 kts 230°
2026-04-29 15:16 64.41771 -51.48076 10031 ft 273 kts 225°
2026-04-29 15:16 64.40179 -51.50431 10005 ft 276 kts 203°
2026-04-29 15:16 64.38308 -51.51304 10118 ft 274 kts 188°
2026-04-29 15:16 64.36411 -51.51687 10099 ft 276 kts 185°
2026-04-29 15:17 64.34506 -51.51831 10046 ft 277 kts 182°
2026-04-29 15:17 64.32589 -51.52129 10115 ft 274 kts 188°
2026-04-29 15:17 64.30728 -51.53092 10090 ft 274 kts 204°
2026-04-29 15:17 64.29047 -51.55058 10085 ft 274 kts 212°
2026-04-29 15:18 64.27402 -51.57278 10062 ft 275 kts 212°
2026-04-29 15:18 64.25735 -51.59443 10060 ft 275 kts 210°
2026-04-29 15:18 64.24041 -51.61435 10067 ft 275 kts 208°
2026-04-29 15:18 64.22317 -51.63211 9962 ft 279 kts 205°
2026-04-29 15:19 64.20475 -51.65075 9040 ft 295 kts 204°
2026-04-29 15:19 64.18605 -51.66794 8059 ft 287 kts 201°
2026-04-29 15:19 64.16835 -51.68471 7578 ft 266 kts 202°
2026-04-29 15:19 64.15340 -51.70257 7767 ft 224 kts 217°